Back to catalog

CZ-4C R/B

AliveSSO
NORAD 43462·ROCKET BODY·🇨🇳 China

Launched May 8, 2018 from Taiyuan Satellite Launch Center

Loading…

Next Passes (next 24 hours)

TLE

FreshSource: Space-Track

Epoch: Sep 14, 2026, 02:37 UTC

1 43462U 18043B   26257.10969628  .00000669  00000-0  76490-4 0  9999
2 43462  98.1506 327.6512 0084263 260.1480  99.0214 14.87245258451988

Track CZ-4C R/B in real time with AllMySat

Download on the App Store